Location: Henham
(51.9333°N, 0.2500°E)
Time: 17:33:32
(UTC+00:00)

STARLINK-77 - Pass Details

Date: 23 October 2019
Orbit: 549 x 551 km, 53.0° (Epoch: 21 November)

Event Time Altitude Azimuth Distance (km) Brightness Sun altitude
Rises 19:10:50 0° 286° (WNW) 2,722 8.7 -22.5°
Reaches altitude 10° 19:13:04 10° 284° (WNW) 1,827 7.4 -22.8°
Enters shadow 19:17:06 74° 218° (SW) 577 3.6 -23.4°
